Flag for Germany Weather past 2 weeks in Sankt Augustin, North Rhine-Westphalia, Germany

Now
43 °F

Partly sunny.


Feels Like: 34 °F
Forecast: 34 / 42 °F
Wind: 22 mph from South

Location: Koeln / Bonn

Current Time: Jan 28, 2015 at 3:43:33 PM

Latest Report: Jan 28, 2015 at 3:20 PM


Visibility: N/A

Pressure: 29.59 "Hg

Humidity: 71%

Dew point: 34 °F

Location of Sankt AugustinLocation

Historic Weather in Sankt Augustin — Graph

°F

Sankt Augustin temperature yesterday

Maximum temperature yesterday: 41 °F (at 1:20 PM)
Minimum temperature yesterday: 36 °F (at 4:20 AM)
Average temperature yesterday: 39 °F

Past Weeks' High & Low Weather Summary

 TemperatureHumidityPressure
High52 °F (Jan 13, 2:20 PM)100% (Jan 14, 4:20 AM)30.42 "Hg (Jan 14, 4:20 AM)
Low27 °F (Jan 19, 7:20 AM)58% (Jan 15, 2:50 PM)29.50 "Hg (Jan 15, 2:50 PM)
Average36 °F85%29.99 "Hg
* Reported Jan 13 2:20 PM — Jan 28 2:20 PM, Sankt Augustin, Weather by CustomWeather, © 2014

Note: Actual official high and low records may vary slightly from our data, if they occured in-between our weather recording intervals... More about our weather records

Advertising

Sankt Augustin weather history for previous 24 hours

 ConditionsComfort  
Time TempWeatherWind HumidityBarometerVisibility
2:20 PM
Jan 28
43 °FPartly sunny.17 mph71%29.68 "HgN/A
1:50 PM43 °FBroken clouds.18 mph76%29.71 "HgN/A
1:20 PM43 °FBroken clouds.15 mph76%29.74 "HgN/A
12:50 PM43 °FPartly sunny.13 mph76%29.77 "HgN/A
12:20 PM41 °FPartly sunny.14 mph81%29.80 "HgN/A
11:50 AM43 °FPartly sunny.15 mph76%29.83 "HgN/A
11:20 AM43 °FPartly sunny.16 mph76%29.86 "HgN/A
10:50 AM41 °FScattered clouds.15 mph81%29.89 "HgN/A
10:20 AM39 °FPartly sunny.13 mph87%29.92 "HgN/A
9:50 AM39 °FBroken clouds.14 mph87%29.92 "HgN/A
9:20 AM39 °FBroken clouds.13 mph87%29.95 "HgN/A
8:50 AM39 °FPartly sunny.12 mph81%29.95 "HgN/A
8:20 AM39 °FLight rain. Partly sunny.9 mph81%29.98 "HgN/A
7:50 AM37 °FPartly cloudy.8 mph87%29.98 "HgN/A
7:20 AM37 °FPassing clouds.9 mph87%30.01 "HgN/A
6:50 AM37 °FPassing clouds.9 mph87%30.01 "HgN/A
6:20 AM37 °FLight rain. Passing clouds.8 mph87%30.04 "HgN/A
5:50 AM37 °FPassing clouds.8 mph87%30.04 "HgN/A
5:20 AM36 °FPassing clouds.8 mph93%30.04 "HgN/A
4:50 AM36 °FPassing clouds.8 mph93%30.04 "HgN/A
4:20 AM36 °FPassing clouds.7 mph93%30.07 "HgN/A
3:50 AM37 °FPassing clouds.7 mph87%30.09 "HgN/A
3:20 AM36 °FPartly cloudy.7 mph93%30.12 "HgN/A
2:50 AM36 °FPartly cloudy.7 mph93%30.12 "HgN/A
2:20 AM37 °FPassing clouds.6 mph93%30.15 "HgN/A
1:50 AM37 °FPassing clouds.7 mph93%30.15 "HgN/A
1:20 AM37 °FPartly cloudy.5 mph93%30.15 "HgN/A
12:50 AM37 °FPartly cloudy.6 mph93%30.15 "HgN/A
12:20 AM39 °FPassing clouds.6 mph93%30.18 "HgN/A
11:50 PM
Jan 27
39 °FPassing clouds.7 mph93%30.18 "HgN/A
11:20 PM39 °FPassing clouds.7 mph93%30.18 "HgN/A
10:50 PM39 °FPassing clouds.8 mph93%30.18 "HgN/A
10:20 PM39 °FSprinkles. Partly cloudy.8 mph93%30.18 "HgN/A
9:50 PM39 °FPassing clouds.7 mph93%30.18 "HgN/A
9:20 PM39 °FPartly cloudy.5 mph93%30.18 "HgN/A
8:50 PM39 °FSprinkles. Passing clouds.2 mph93%30.18 "Hg5 mi
8:20 PM39 °FSprinkles. Passing clouds.2 mph93%30.21 "Hg5 mi
7:50 PM39 °FSprinkles. Passing clouds.2 mph93%30.21 "HgN/A
7:20 PM39 °FPassing clouds.3 mph93%30.21 "HgN/A
6:50 PM39 °FPassing clouds.5 mph93%30.21 "HgN/A
6:20 PM39 °FSprinkles. Passing clouds.7 mph93%30.18 "HgN/A
5:50 PM39 °FPassing clouds.6 mph93%30.18 "HgN/A
5:20 PM39 °FSprinkles. Partly cloudy.6 mph93%30.18 "HgN/A
4:50 PM39 °FScattered showers. Partly sunny.6 mph87%30.18 "HgN/A
4:20 PM39 °FRain showers. Partly sunny.13 mph93%30.18 "Hg4 mi
3:50 PM41 °FSprinkles. Broken clouds.12 mph87%30.18 "HgN/A
3:20 PM41 °FSprinkles. Broken clouds.13 mph87%30.18 "HgN/A
Weather by CustomWeather, © 2014

See weather overviewHow to use our weather pages